Change the Weather History Date:

Saturday, October 6, 2012

  Actual Average Record
Temperature  
Mean Temperature 78 °F -  
Max Temperature 95 °F - - ()
Min Temperature 61 °F - - ()
Cooling Degree Days 13    
Growing Degree Days 28 (Base 50)    
Moisture  
Dew Point 29 °F    
Average Humidity 17    
Maximum Humidity 40    
Minimum Humidity 4    
Precipitation  
Precipitation 0.00 in - - ()
Sea Level Pressure  
Sea Level Pressure 30.05 in    
Wind  
Wind Speed 8 mph ()    
Max Wind Speed 21 mph    
Max Gust Speed 23 mph    
Visibility 19.0 miles    
Events      
T = Trace of Precipitation, MM = Missing Value Source: Averaged Metar Reports

Daily Weather History Graph

Daily Weather History Graph

Search for Another Location

Airport or City:

Trip Planner

Search our weather history database for the weather conditions in past years. The results will help you decide how hot, cold, wet, or windy it might be!

Date:

Astronomy

Oct. 06, 2012 Rise Set
Actual Time 5:51 AM SAST 6:20 PM SAST
Civil Twilight 5:28 AM SAST 6:43 PM SAST
Nautical Twilight 5:01 AM SAST 7:10 PM SAST
Astronomical Twilight 4:34 AM SAST 7:37 PM SAST
Moon 11:50 PM SAST (10/6) 9:57 AM SAST (10/6)
Length of Visible Light 13h 14m
Length of Day
12h 28m
Waning Gibbous, 68% of the Moon is Illuminated
Oct 6
Waning Gibbous
Oct 8
Last Quarter
Oct 15
New
Oct 22
First Quarter
Oct 29
Full

Hourly Weather History & Observations

Time (SAST) Temp. Dew Point Humidity Pressure Visibility Wind Dir Wind Speed Gust Speed Precip Events Conditions
12:00 AM 73.4 °F 17.6 °F 12% 30.06 in - NNE 4.6 mph - N/A   Unknown
1:00 AM 77.0 °F 23.0 °F 13% 30.06 in - North 4.6 mph - N/A   Unknown
2:00 AM 74 °F 25 °F 8%  in - ENE 2.3 mph - -  
2:00 AM 73.4 °F 26.6 °F 18% 30.06 in - ENE 2.3 mph - N/A   Unknown
3:00 AM 71.6 °F 28.4 °F 20% 30.06 in - NNE 9.2 mph - N/A   Unknown
4:00 AM 64.4 °F 28.4 °F 26% 30.06 in - East 5.8 mph - N/A   Unknown
5:00 AM 62 °F 32 °F 20%  in 19 mi East 6.9 mph - -  
5:00 AM 60.8 °F 32.0 °F 34% 30.06 in - East 6.9 mph - N/A   Clear
6:00 AM 60.8 °F 35.6 °F 39% 30.09 in - East 5.8 mph - N/A   Clear
7:00 AM 68.0 °F 42.8 °F 40% 30.09 in - ENE 5.8 mph - N/A   Clear
7:38 AM 73.4 °F 42.8 °F 33% 30.09 in - NNE 16.1 mph - N/A   Clear
8:00 AM 76 °F 43 °F 21%  in 19 mi NNE 20.7 mph - -  
8:00 AM 75.2 °F 42.8 °F 31% 30.09 in - NNE 19.6 mph - N/A   Clear
9:00 AM 78.8 °F 41.0 °F 26% 30.09 in - NNE 20.7 mph - N/A   Clear
9:31 AM 82.4 °F 41.0 °F 23% 30.09 in - NNE 19.6 mph - N/A   Clear
10:00 AM 82.4 °F 39.2 °F 21% 30.09 in - NNE 19.6 mph - N/A   Clear
11:00 AM 86.0 °F 37.4 °F 18% 30.06 in - North 17.3 mph - N/A   Clear
12:00 PM 89.6 °F 32.0 °F 13% 30.06 in - North 13.8 mph - N/A   Clear
1:00 PM 91.4 °F 28.4 °F 10% 30.04 in - North 11.5 mph - N/A   Clear
2:00 PM 94 °F 21 °F 4%  in 19 mi North 11.5 mph - -   Clear
2:00 PM 93.2 °F 23.0 °F 8% 30.01 in - North 10.4 mph 23.0 mph N/A   Clear
3:00 PM 93.2 °F 14.0 °F 5% 30.01 in - NNW 9.2 mph - N/A   Clear
4:00 PM 93.2 °F 21.2 °F 7% 29.98 in - North 12.7 mph - N/A   Clear
5:00 PM 91.4 °F 21.2 °F 8% 29.98 in - North 10.4 mph - N/A   Clear
6:00 PM 89.6 °F 23.0 °F 9% 29.98 in - North 11.5 mph - N/A   Clear
7:00 PM 84.2 °F 21.2 °F 10% 30.01 in - NNE 9.2 mph - N/A   Clear
8:00 PM 82 °F 25 °F 6%  in 19 mi NNE 10.4 mph - -  
8:00 PM 80.6 °F 26.6 °F 14% 30.01 in - NNE 9.2 mph - N/A   Clear
9:00 PM 77.0 °F 26.6 °F 16% 30.04 in - NNE 8.1 mph - N/A   Unknown
10:00 PM 73.4 °F 26.6 °F 18% 30.04 in - NNE 8.1 mph - N/A   Unknown
11:00 PM 77 °F 23 °F 6%  in - NNE 10.4 mph - -  
11:00 PM 77.0 °F 24.8 °F 14% 30.04 in - NNE 9.2 mph - N/A   Unknown